DW5057 Weather Reports


Display with metric or nautical units.
time (UTC)temp
F
wind
direction
speed
MPH
gust
MPH
rain 1hr
in
rain 24hr
in
rain mn
in
humidity
%
barometer
mb
20260510174516 72 58 2.0 5.0 0.00 0.03 0.00 70 1014.4
20260510173516 73 212 1.0 4.0 0.00 0.03 0.00 67 1014.4
20260510172516 74 215 1.0 3.0 0.00 0.03 0.00 61 1014.4
20260510171516 75 241 1.0 4.0 0.00 0.03 0.00 62 1014.4
20260510170516 75 206 1.0 4.0 0.00 0.03 0.00 62 1014.5
20260510165516 77 204 1.0 4.0 0.00 0.03 0.00 62 1014.6
20260510164537 82 193 2.0 4.0 0.00 0.03 0.00 45 1014.4
20260510163516 81 227 0.0 2.0 0.00 0.03 0.00 44 1014.5
20260510162516 79 251 1.0 3.0 0.00 0.03 0.00 47 1014.5
20260510161537 76 212 0.0 4.0 0.00 0.03 0.00 50 1014.5
20260510160517 76 204 1.0 4.0 0.00 0.03 0.00 53 1014.6
20260510155517 74 224 1.0 3.0 0.00 0.03 0.00 60 1014.5
20260510154538 74 206 1.0 4.0 0.00 0.03 0.00 64 1014.4
20260510153517 75 203 1.0 4.0 0.00 0.03 0.00 65 1014.5
20260510152518 78 202 1.0 4.0 0.00 0.03 0.00 57 1014.5
20260510151538 78 218 1.0 4.0 0.00 0.03 0.00 55 1014.6
20260510150518 78 267 0.0 2.0 0.00 0.03 0.00 57 1014.6
20260510145518 77 246 0.0 3.0 0.00 0.03 0.00 57 1014.6
20260510144538 77 286 0.0 2.0 0.00 0.03 0.00 58 1014.7
20260510143518 77 238 0.0 2.0 0.00 0.03 0.00 57 1014.5
20260510142518 77 200 0.0 2.0 0.00 0.03 0.00 58 1014.4
20260510141516 78 192 0.0 2.0 0.00 0.03 0.00 58 1014.3
20260510140516 78 244 0.0 0.0 0.00 0.03 0.00 58 1014.4
20260510135516 77 41 2.0 5.0 0.00 0.03 0.00 59 1014.5
20260510134517 76 47 2.0 4.0 0.00 0.03 0.00 60 1014.4
20260510133617 75 40 2.0 4.0 0.00 0.03 0.00 61 1014.3
20260510132517 74 42 1.0 4.0 0.00 0.03 0.00 64 1014.3
20260510131517 71 46 2.0 5.0 0.00 0.03 0.00 69 1014.2
20260510130517 70 49 1.0 4.0 0.00 0.03 0.00 74 1014.2
20260510125517 69 50 1.0 3.0 0.00 0.03 0.00 75 1014.0
20260510124517 67 44 1.0 4.0 0.00 0.03 0.00 81 1013.9
20260510123518 64 41 0.0 2.0 0.00 0.03 0.00 88 1013.5
20260510122517 63 37 0.0 2.0 0.00 0.03 0.00 93 1013.4
20260510121518 61 41 0.0 1.0 0.00 0.03 0.00 95 1013.4
20260510120518 60 27 0.0 2.0 0.00 0.03 0.00 97 1013.2
20260510115518 59 28 0.0 2.0 0.00 0.03 0.00 97 1013.2
20260510114519 59 35 0.0 1.0 0.00 0.03 0.00 98 1013.1
20260510113536 58 27 0.0 2.0 0.00 0.03 0.00 98 1013.0
20260510112518 58 49 0.0 2.0 0.00 0.03 0.00 98 1012.9
20260510111516 58 52 0.0 1.0 0.00 0.03 0.00 99 1012.8
20260510110516 57 46 0.0 2.0 0.00 0.03 0.00 99 1012.7
20260510105516 56 51 0.0 2.0 0.00 0.03 0.00 99 1012.6
20260510104517 56 29 0.0 2.0 0.00 0.03 0.00 99 1012.5
20260510103516 55 344 0.0 2.0 0.00 0.03 0.00 99 1012.3
20260510102517 55 352 0.0 2.0 0.00 0.03 0.00 98 1012.1
20260510101516 55 56 0.0 2.0 0.00 0.03 0.00 98 1012.0
20260510100517 55 41 0.0 2.0 0.00 0.03 0.00 98 1012.0
20260510095517 55 47 0.0 2.0 0.00 0.03 0.00 98 1012.0
20260510094518 56 7 0.0 2.0 0.00 0.03 0.00 98 1011.8
20260510093517 56 24 0.0 1.0 0.00 0.03 0.00 98 1011.6
20260510092517 56 40 0.0 2.0 0.00 0.03 0.00 98 1011.5
20260510091517 56 25 0.0 1.0 0.00 0.03 0.00 98 1011.4
20260510090517 56 310 1.0 2.0 0.00 0.03 0.00 98 1011.2
20260510085518 56 45 0.0 1.0 0.00 0.03 0.00 98 1011.2
20260510084538 56 22 0.0 1.0 0.00 0.03 0.00 98 1011.1
20260510083515 56 41 0.0 1.0 0.00 0.03 0.00 98 1011.1
20260510082559 56 47 0.0 1.0 0.00 0.03 0.00 98 1011.1
20260510081519 56 349 0.0 2.0 0.00 0.03 0.00 98 1011.0
20260510080516 56 60 0.0 1.0 0.00 0.03 0.00 98 1010.9
20260510075536 56 18 0.0 1.0 0.00 0.03 0.00 98 1010.9
20260510074536 56 61 0.0 1.0 0.00 0.03 0.00 98 1011.0
20260510073517 56 65 0.0 2.0 0.00 0.03 0.00 98 1011.0
20260510072517 56 14 0.0 2.0 0.00 0.03 0.00 98 1011.0
20260510071516 56 50 0.0 1.0 0.00 0.03 0.00 98 1011.0
20260510070517 56 8 0.0 2.0 0.00 0.03 0.00 98 1011.0
20260510065517 56 64 0.0 1.0 0.00 0.03 0.00 98 1011.0
20260510064517 56 65 0.0 2.0 0.00 0.03 0.00 98 1011.0
20260510063517 57 42 0.0 1.0 0.00 0.03 0.00 98 1011.1
20260510062518 57 58 0.0 2.0 0.00 0.03 0.00 98 1011.1
20260510061517 57 53 0.0 2.0 0.00 0.03 0.00 98 1011.2
20260510060518 57 23 0.0 2.0 0.00 0.03 0.00 98 1011.3
20260510055518 57 315 0.0 2.0 0.00 0.03 0.00 98 1011.3
20260510054518 57 313 0.0 1.0 0.00 0.03 0.00 98 1011.3
20260510053518 57 354 0.0 2.0 0.00 0.03 0.00 98 1011.3
20260510052518 57 343 0.0 2.0 0.00 0.03 0.00 98 1011.3
20260510051516 58 326 1.0 2.0 0.00 0.03 0.00 98 1011.4
20260510050516 58 335 0.0 2.0 0.00 0.03 0.00 98 1011.5
20260510045536 58 343 0.0 2.0 0.00 0.03 0.00 98 1011.5
20260510044516 58 56 0.0 2.0 0.00 0.03 0.00 98 1011.5
20260510043517 58 319 0.0 2.0 0.00 0.03 0.00 97 1011.5
20260510042516 58 4 0.0 2.0 0.00 0.03 0.00 97 1011.5
20260510041536 58 352 0.0 1.0 0.00 0.03 0.00 97 1011.5
20260510040557 58 349 0.0 1.0 0.00 0.03 0.00 97 1011.4
20260510035517 58 61 0.0 2.0 0.00 0.03 0.03 97 1011.3
20260510034517 58 27 0.0 1.0 0.00 0.03 0.03 97 1011.3
20260510033517 58 74 0.0 2.0 0.00 0.03 0.03 97 1011.2
20260510032517 58 62 0.0 1.0 0.00 0.03 0.03 97 1011.2
20260510031518 58 73 0.0 1.0 0.00 0.03 0.03 97 1011.1
20260510030518 59 19 0.0 1.0 0.00 0.03 0.03 97 1011.1
20260510025518 59 318 0.0 1.0 0.00 0.03 0.03 97 1011.1
20260510024518 59 336 0.0 1.0 0.00 0.03 0.03 97 1011.0
20260510023518 59 40 0.0 1.0 0.00 0.03 0.03 96 1011.1
20260510022519 59 353 1.0 2.0 0.00 0.03 0.03 96 1011.1
20260510021516 59 33 0.0 2.0 0.00 0.03 0.03 96 1011.1
20260510020518 59 338 0.0 2.0 0.00 0.03 0.03 96 1011.1
20260510015516 59 354 1.0 2.0 0.00 0.03 0.03 96 1011.1
20260510014516 58 44 0.0 2.0 0.00 0.03 0.03 95 1011.0
20260510013516 59 34 1.0 2.0 0.00 0.03 0.03 95 1010.9
20260510012517 59 30 1.0 2.0 0.00 0.03 0.03 95 1010.9
20260510011516 59 47 0.0 2.0 0.00 0.03 0.03 95 1010.8
20260510010557 59 21 1.0 2.0 0.00 0.03 0.03 95 1010.7
20260510005517 59 28 1.0 2.0 0.00 0.03 0.03 94 1010.6
20260510004537 59 26 0.0 2.0 0.00 0.03 0.03 94 1010.6
20260510003517 59 30 1.0 2.0 0.00 0.03 0.03 94 1010.5
20260510002518 60 22 1.0 2.0 0.00 0.03 0.03 93 1010.5
20260510001538 60 27 1.0 2.0 0.00 0.03 0.03 93 1010.4
20260510000518 60 25 1.0 2.0 0.00 0.03 0.03 92 1010.3
20260509235538 60 25 1.0 2.0 0.00 0.03 0.03 92 1010.3
20260509234518 60 17 1.0 2.0 0.00 0.03 0.03 91 1010.2
20260509233518 60 34 1.0 2.0 0.00 0.03 0.03 91 1010.1
20260509232516 61 19 1.0 2.0 0.00 0.03 0.03 90 1010.1
20260509231516 61 30 1.0 3.0 0.00 0.03 0.03 90 1010.1
20260509230516 61 24 1.0 3.0 0.00 0.03 0.03 90 1010.0
20260509225516 61 32 1.0 2.0 0.00 0.03 0.03 89 1009.8
20260509224516 62 35 1.0 2.0 0.00 0.03 0.03 88 1009.8
20260509223516 62 52 1.0 2.0 0.00 0.03 0.03 87 1010.0
20260509222537 63 37 1.0 2.0 0.00 0.03 0.03 85 1010.0
20260509221537 64 37 1.0 5.0 0.00 0.03 0.03 84 1010.0
20260509220517 63 13 1.0 2.0 0.00 0.03 0.03 84 1010.1
20260509215517 63 6 1.0 3.0 0.00 0.03 0.03 85 1010.1
20260509214517 63 1 1.0 2.0 0.00 0.03 0.03 85 1010.0
20260509213517 63 354 1.0 3.0 0.00 0.03 0.03 85 1009.8
20260509212518 62 16 1.0 3.0 0.00 0.03 0.03 85 1009.8
20260509211538 62 253 1.0 4.0 0.00 0.03 0.03 86 1009.8
20260509210518 63 251 1.0 3.0 0.00 0.03 0.03 84 1009.8
20260509205518 63 297 1.0 6.0 0.00 0.03 0.03 84 1009.9
20260509204518 64 180 1.0 3.0 0.00 0.03 0.03 83 1010.0
20260509203538 64 240 0.0 2.0 0.00 0.03 0.03 84 1010.3
20260509202516 64 219 1.0 3.0 0.00 0.03 0.03 85 1010.3
20260509201518 63 180 1.0 3.0 0.00 0.03 0.03 85 1010.5
20260509200518 63 182 1.0 3.0 0.00 0.03 0.03 85 1010.6
20260509195516 63 199 1.0 3.0 0.00 0.03 0.03 85 1010.9
20260509194516 63 210 1.0 2.0 0.00 0.03 0.03 85 1011.0
20260509193536 63 174 1.0 2.0 0.00 0.03 0.03 86 1011.2
20260509192516 63 163 1.0 2.0 0.00 0.03 0.03 87 1011.3
20260509191517 64 185 1.0 4.0 0.00 0.03 0.03 87 1011.4
20260509190517 63 132 1.0 3.0 0.01 0.03 0.03 89 1011.4
20260509185517 61 128 1.0 3.0 0.01 0.03 0.03 91 1011.5
20260509184517 61 106 1.0 3.0 0.03 0.03 0.03 93 1011.6
20260509183537 60 112 1.0 3.0 0.03 0.03 0.03 93 1011.7
20260509182518 60 89 1.0 3.0 0.03 0.03 0.03 93 1011.7
20260509181518 60 143 2.0 5.0 0.03 0.03 0.03 92 1011.9
20260509180518 60 151 2.0 4.0 0.02 0.02 0.02 93 1012.1
20260509175538 61 161 2.0 4.0 0.02 0.02 0.02 92 1012.0